EBOSLIPR

Guest
Details From EBOS - Oostende
To LIPR - Rimini Mil
Flight Number -
Tags Generated
Created
Modified
Stats Distance 583 nm / 1,079 km
Max Altitude 0 ft / 0 m
Waypoints 4
Social Downloads 2
Likes 0
Share VATSIM

Download

Looking for another format? Having issues loading an existing format? Contact us
Advertisement - Login to hide

Notes

Generated

Route

EBOS ZH579 CER15 LIPR

ID Type Via Altitude Latitude Longitude Leg Dist Tot Dist Heading (true) Name
O EBOS APT - 0 ft / 0 m 51.19832˚ 2.86670˚ - 0 nm - -
ZH579 FIX - 0 ft / 0 m 47.46603˚ 8.36882˚ 310 nm 310 nm 134° / 138° -
CER15 FIX - 0 ft / 0 m 44.21744˚ 12.32659˚ 255 nm 566 nm 138° / 141° -
O LIPR APT - 0 ft / 0 m 44.02853˚ 12.59696˚ 16 nm 582 nm 134° / 134° -

Altitude Profile

Advertisement - Login to hide

Weather


0- 5 10 15 20 25 30 35+ Temperature / ° C

Clouds and Precipitation
Forecast for 2018-05-21 18:00 UTC. Updated 4 hours ago

Ground ~20,000 ft ~40,000 ft Winds

EBOS

Details ICAO EBOS (OST)
Name Oostende
Region Belgium
Timezone Europe/Brussels (UTC+2.0)
Stats Elevation 13 ft / 4 m (AMSL)
Location 51.199967° 2.875008°
Runways 1
Magnetic Variation 0.650° E

METAR

EBOS 212020Z 03005KT 9999 FEW040TCU 15/11 Q1012 TEMPO 4500 SHRA

Decode

TAF

TAF EBOS 211700Z 2118/2224 02008KT 9999 FEW040TCU PROB30 TEMPO 2118/2124 VRB15G30KT 3000 SHRA TSRAGS PROB40 TEMPO 2215/2223 VRB18G30KT 1500 SHRA TSRAGR

Decode

Departure Runways

ID Width Length Bearing (true) Bearing (mag) Surface Threshold Offset Overrun Length
08 148 ft / 45 m 10,515 ft / 3,205 m 76.36° 75.71° Asphalt 984 ft / 300 m 0 ft / 0 m
26 148 ft / 45 m 10,515 ft / 3,205 m 256.39° 255.74° Asphalt 1,362 ft / 415 m 0 ft / 0 m

LIPR

Details ICAO LIPR (RMI)
Name Rimini Mil
Region Italy
Timezone Europe/Rome (UTC+2.0)
Stats Elevation 41 ft / 12 m (AMSL)
Location 44.020286° 12.611746°
Runways 1
Magnetic Variation 3.215° E

METAR

LIPR 212015Z 23001KT 9999 SCT050 21/19 Q1012

Decode

TAF

Not found

Destination Runways

ID Width Length Bearing (true) Bearing (mag) Surface Threshold Offset Overrun Length
13 148 ft / 45 m 9,818 ft / 2,992 m 127.79° 124.58° Asphalt 1,030 ft / 314 m 846 ft / 258 m
31 148 ft / 45 m 9,818 ft / 2,992 m 307.81° 304.60° Asphalt 1,006 ft / 307 m 376 ft / 115 m

Approach Navaids

Runway Type Ident Frequency Range Bearing (true) Bearing (mag) Slope Elevation
31 Localiser MIR 109.30 MHz 18 nm / 33 km 307.77° 304.56° - 41 ft / 12 m (AMSL)
31 Glidescope MIR 109.30 MHz 10 nm / 19 km 307.80° 304.58° 3.00° 41 ft / 12 m (AMSL)